Location: Unspecified
(48.7670°N, 0.0000°E)
Time: 17:40:24
(UTC+00:00)

Altair - Pass Details

Date: 28 June 2019
Orbit: 1501 x 1683 km, 47.2° (Epoch: 24 August)

Event Time Altitude Azimuth Distance (km) Brightness Sun altitude
Rises 02:42:24 0° 284° (WNW) 4,870 9.9 -9.7°
Reaches altitude 10° 02:48:45 10° 254° (WSW) 3,913 9.2 -9.0°
Maximum altitude 02:51:26 11° 238° (WSW) 3,813 9.0 -8.7°
Drops below altitude 10° 02:54:09 10° 222° (SW) 3,929 8.9 -8.5°
Enters shadow 02:54:35 10° 220° (SW) 3,967 8.9 -8.4°
Sets 03:00:38 0° 193° (SSW) 4,922 - -7.8°
